Simultaneous Nadir Overpasses (SNOs) Predictions

Prediction of SNOs near equator between AQUA and NPP Satellite Orbit:

Table of predicted SNOs near equator for the next 14.0 days since TLE Epoch: 10/5/2013
Index Date (AQUA) Time (AQUA) AQUA Lat,Lon Date (NPP) Time (NPP) NPP Lat,Lon Distance(km) Time Diff (sec)
1 10/06/2013 23:26:41 -29.98, 27.46 10/06/2013 23:16:41 -30.13, 27.18 32.69 600
2 10/07/2013 00:08:34 2.39,-158.60 10/06/2013 23:59:37 2.38,-158.82 23.83 537
3 10/07/2013 00:56:42 2.09, 10.01 10/07/2013 00:49:00 2.17, 9.53 53.27 462
4 10/07/2013 01:44:57 -6.67, 178.61 10/07/2013 01:38:30 -6.85, 177.88 82.40 387
5 10/09/2013 15:36:18 -5.32, 149.04 10/09/2013 15:26:33 -5.29, 149.01 4.70 585
6 10/09/2013 16:24:33 0.74, -42.37 10/09/2013 16:16:04 0.66, -42.66 33.91 509
7 10/09/2013 17:12:40 3.81, 126.26 10/09/2013 17:05:26 3.94, 125.70 63.22 434
8 10/09/2013 18:00:55 -8.39, -65.14 10/09/2013 17:54:57 -8.56, -65.96 92.10 358
9 10/12/2013 07:52:16 -3.57, -94.70 10/12/2013 07:43:00 -3.52, -94.82 14.42 556
10 10/12/2013 08:40:31 -1.01, 73.89 10/12/2013 08:32:31 -1.10, 73.51 44.18 480
11 10/12/2013 09:28:38 5.56,-117.48 10/12/2013 09:21:53 5.70,-118.13 73.28 405
12 10/14/2013 23:21:06 9.96,-147.84 10/14/2013 23:11:06 9.96,-147.84 0.01 600
13 10/15/2013 00:08:14 -1.84, 21.56 10/14/2013 23:59:27 -1.76, 21.34 24.99 527
14 10/15/2013 00:56:28 -2.80,-169.84 10/15/2013 00:48:57 -2.92,-170.31 54.53 451
15 10/15/2013 01:44:36 7.29, -1.22 10/15/2013 01:38:20 7.46, -1.95 83.38
